TimeEDT,TemperatureF,Dew PointF,Humidity,Sea Level PressureIn,VisibilityMPH,Wind Direction,Wind SpeedMPH,Gust SpeedMPH,PrecipitationIn,Events,Conditions,WindDirDegrees,DateUTC
12:15 AM,69.8,64.4,83,30.00,10.0,Calm,Calm,-,N/A,,Overcast,0,2013-09-21 04:15:00
12:35 AM,69.8,64.4,83,30.00,10.0,Calm,Calm,-,N/A,,Overcast,0,2013-09-21 04:35:00
12:55 AM,69.8,64.4,83,30.00,10.0,Calm,Calm,-,N/A,,Overcast,0,2013-09-21 04:55:00
1:15 AM,69.8,64.4,83,30.00,10.0,Calm,Calm,-,N/A,,Overcast,0,2013-09-21 05:15:00
1:35 AM,69.8,64.4,83,29.99,10.0,Calm,Calm,-,N/A,,Mostly Cloudy,0,2013-09-21 05:35:00
1:55 AM,68.0,64.4,88,29.99,10.0,Calm,Calm,-,N/A,,Mostly Cloudy,0,2013-09-21 05:55:00
2:15 AM,68.0,64.4,88,29.98,7.0,Calm,Calm,-,N/A,,Overcast,0,2013-09-21 06:15:00
2:35 AM,68.0,64.4,88,29.98,7.0,Calm,Calm,-,N/A,,Overcast,0,2013-09-21 06:35:00
2:55 AM,68.0,64.4,88,29.98,7.0,Calm,Calm,-,N/A,,Overcast,0,2013-09-21 06:55:00
3:15 AM,69.8,64.4,83,29.97,7.0,SSE,3.5,-,N/A,,Overcast,150,2013-09-21 07:15:00
3:35 AM,69.8,64.4,83,29.97,7.0,Calm,Calm,-,N/A,,Overcast,0,2013-09-21 07:35:00
3:55 AM,69.8,64.4,83,29.97,7.0,South,4.6,-,N/A,,Overcast,170,2013-09-21 07:55:00
4:15 AM,69.8,64.4,83,29.96,7.0,SSE,3.5,-,N/A,,Overcast,150,2013-09-21 08:15:00
4:35 AM,69.8,64.4,83,29.95,7.0,Calm,Calm,-,N/A,,Overcast,0,2013-09-21 08:35:00
4:55 AM,69.8,64.4,83,29.95,7.0,SSE,3.5,-,N/A,,Overcast,150,2013-09-21 08:55:00
5:15 AM,69.8,64.4,83,29.94,7.0,SSE,4.6,-,N/A,,Overcast,160,2013-09-21 09:15:00
5:35 AM,69.8,64.4,83,29.94,4.0,SSE,4.6,-,0.04,Rain,Rain,150,2013-09-21 09:35:00
5:55 AM,69.8,64.4,83,29.93,10.0,SSE,5.8,-,0.04,,Light Drizzle,160,2013-09-21 09:55:00
6:15 AM,69.8,64.4,83,29.93,7.0,Calm,Calm,-,0.01,,Light Drizzle,0,2013-09-21 10:15:00
6:35 AM,69.8,64.4,83,29.93,7.0,Calm,Calm,-,0.01,,Overcast,0,2013-09-21 10:35:00
6:55 AM,68.0,64.4,88,29.93,5.0,Calm,Calm,-,0.08,Rain,Rain,0,2013-09-21 10:55:00
7:15 AM,68.0,64.4,88,29.92,7.0,Calm,Calm,-,N/A,Rain,Light Rain,0,2013-09-21 11:15:00
7:35 AM,69.8,66.2,88,29.92,5.0,SSE,3.5,-,N/A,,Overcast,150,2013-09-21 11:35:00
7:55 AM,69.8,66.2,88,29.92,7.0,Calm,Calm,-,N/A,,Overcast,0,2013-09-21 11:55:00
8:15 AM,69.8,66.2,88,29.93,7.0,Calm,Calm,-,N/A,,Overcast,0,2013-09-21 12:15:00
8:35 AM,69.8,66.2,88,29.92,7.0,Calm,Calm,-,N/A,,Overcast,0,2013-09-21 12:35:00
8:55 AM,69.8,66.2,88,29.92,7.0,Calm,Calm,-,N/A,,Overcast,0,2013-09-21 12:55:00
9:15 AM,69.8,66.2,88,29.92,7.0,Calm,Calm,-,N/A,,Overcast,0,2013-09-21 13:15:00
9:35 AM,69.8,68.0,94,29.92,7.0,SSE,3.5,-,N/A,,Overcast,160,2013-09-21 13:35:00
9:55 AM,69.8,66.2,88,29.92,7.0,Calm,Calm,-,N/A,,Overcast,0,2013-09-21 13:55:00
10:15 AM,71.6,68.0,88,29.92,7.0,SSE,4.6,-,N/A,,Overcast,160,2013-09-21 14:15:00
10:35 AM,71.6,68.0,88,29.92,5.0,SSE,4.6,-,N/A,,Haze,150,2013-09-21 14:35:00
10:55 AM,71.6,68.0,88,29.92,7.0,South,5.8,-,N/A,,Overcast,170,2013-09-21 14:55:00
11:15 AM,73.4,68.0,83,29.91,7.0,South,6.9,-,N/A,,Overcast,170,2013-09-21 15:15:00
11:35 AM,73.4,68.0,83,29.90,7.0,SSE,6.9,-,N/A,,Overcast,160,2013-09-21 15:35:00
11:55 AM,73.4,68.0,83,29.89,7.0,SSE,6.9,-,N/A,,Overcast,150,2013-09-21 15:55:00
12:15 PM,75.2,68.0,78,29.89,7.0,SSE,5.8,-,N/A,,Overcast,160,2013-09-21 16:15:00
12:35 PM,77.0,68.0,74,29.88,7.0,SSE,6.9,-,N/A,,Overcast,150,2013-09-21 16:35:00
12:55 PM,77.0,68.0,74,29.87,10.0,South,10.4,-,N/A,,Overcast,180,2013-09-21 16:55:00
1:15 PM,77.0,68.0,74,29.86,10.0,South,9.2,-,N/A,,Overcast,170,2013-09-21 17:15:00
1:35 PM,77.0,68.0,74,29.86,10.0,South,9.2,-,N/A,,Overcast,170,2013-09-21 17:35:00
1:55 PM,77.0,68.0,74,29.84,10.0,South,6.9,-,N/A,,Overcast,170,2013-09-21 17:55:00
2:15 PM,77.0,68.0,74,29.83,7.0,SSE,8.1,-,N/A,,Overcast,160,2013-09-21 18:15:00
2:35 PM,77.0,68.0,74,29.83,10.0,SSE,8.1,-,N/A,,Overcast,160,2013-09-21 18:35:00
2:55 PM,78.8,68.0,69,29.82,7.0,SSE,4.6,-,N/A,,Overcast,160,2013-09-21 18:55:00
3:15 PM,78.8,69.8,74,29.81,10.0,SSE,6.9,-,N/A,,Overcast,150,2013-09-21 19:15:00
3:35 PM,78.8,69.8,74,29.80,10.0,SSE,5.8,-,N/A,,Mostly Cloudy,150,2013-09-21 19:35:00
3:55 PM,78.8,69.8,74,29.79,10.0,SSE,5.8,-,N/A,,Mostly Cloudy,150,2013-09-21 19:55:00
4:15 PM,78.8,69.8,74,29.79,7.0,SSE,6.9,-,N/A,,Mostly Cloudy,150,2013-09-21 20:15:00
4:35 PM,77.0,69.8,78,29.78,7.0,SSE,4.6,-,N/A,,Scattered Clouds,150,2013-09-21 20:35:00
4:55 PM,77.0,69.8,78,29.77,7.0,Calm,Calm,-,N/A,,Scattered Clouds,0,2013-09-21 20:55:00
5:15 PM,77.0,69.8,78,29.77,7.0,Calm,Calm,-,N/A,,Scattered Clouds,0,2013-09-21 21:15:00
5:35 PM,77.0,69.8,78,29.77,7.0,SSE,4.6,-,N/A,,Mostly Cloudy,150,2013-09-21 21:35:00
5:55 PM,77.0,69.8,78,29.76,5.0,SSE,3.5,-,N/A,Rain,Light Rain,150,2013-09-21 21:55:00
6:15 PM,75.2,69.8,83,29.76,5.0,Calm,Calm,-,N/A,,Light Drizzle,0,2013-09-21 22:15:00
6:35 PM,75.2,71.6,89,29.75,5.0,SSE,6.9,-,0.04,Rain,Heavy Rain,160,2013-09-21 22:35:00
6:55 PM,73.4,71.6,94,29.76,3.0,Calm,Calm,-,0.14,Rain,Heavy Rain,0,2013-09-21 22:55:00
7:15 PM,73.4,71.6,94,29.76,5.0,Calm,Calm,-,0.01,Rain,Rain,0,2013-09-21 23:15:00
7:35 PM,73.4,71.6,94,29.76,3.0,Calm,Calm,-,0.06,Rain,Heavy Rain,0,2013-09-21 23:35:00
7:55 PM,73.4,71.6,94,29.76,4.0,Calm,Calm,-,0.08,Rain,Rain,0,2013-09-21 23:55:00
8:15 PM,73.4,71.6,94,29.76,5.0,Calm,Calm,-,0.03,Rain,Rain,0,2013-09-22 00:15:00
8:35 PM,73.4,71.6,94,29.77,5.0,Calm,Calm,-,0.03,,Light Drizzle,0,2013-09-22 00:35:00
8:55 PM,73.4,71.6,94,29.77,5.0,Calm,Calm,-,0.03,,Light Drizzle,0,2013-09-22 00:55:00
9:15 PM,73.4,71.6,94,29.77,4.0,Calm,Calm,-,N/A,,Light Drizzle,0,2013-09-22 01:15:00
9:35 PM,73.4,71.6,94,29.77,4.0,Calm,Calm,-,N/A,,Drizzle,0,2013-09-22 01:35:00
9:55 PM,73.4,71.6,94,29.76,4.0,Calm,Calm,-,0.01,Rain,Light Rain,0,2013-09-22 01:55:00
10:15 PM,73.4,71.6,94,29.77,2.5,Calm,Calm,-,0.06,Rain,Heavy Rain,0,2013-09-22 02:15:00
10:35 PM,73.4,69.8,88,29.77,5.0,Calm,Calm,-,0.10,Rain,Light Rain,0,2013-09-22 02:35:00
10:55 PM,73.4,69.8,88,29.76,7.0,Calm,Calm,-,0.11,,Light Drizzle,0,2013-09-22 02:55:00
11:15 PM,73.4,71.6,94,29.76,5.0,Calm,Calm,-,N/A,Rain,Light Rain,0,2013-09-22 03:15:00
11:35 PM,73.4,71.6,94,29.76,3.0,South,8.1,-,0.03,Rain,Heavy Rain,170,2013-09-22 03:35:00
11:55 PM,71.6,69.8,94,29.76,4.0,Calm,Calm,-,0.11,Rain,Light Rain,0,2013-09-22 03:55:00